Fenwick

*Note: All times are displayed in the local standard time of the station location.
**Rain - Equipment is designed to accurately record liquid precipitation; under conditions when precipitation is not in liquid form, the data displayed may not properly reflect rainfall values.

Date Max Temp
(°C)
Min Temp
(°C)
Avg Temp
(°C)
Rain (mm) Avg RH (%)
Sat, Feb 17, 2018 -1.7 -8.7 -4.3 0.0 79.8
Fri, Feb 16, 2018 4.0 -7.0 -0.9 0.0 83.2
Thu, Feb 15, 2018 7.6 2.2 5.3 1.0 100.0
Wed, Feb 14, 2018 4.3 -4.8 1.7 7.6 83.3
Tue, Feb 13, 2018 0.5 -16.0 -7.9 0.2 78.4
Mon, Feb 12, 2018 -2.6 -12.4 -6.1 0.0 75.4
Sun, Feb 11, 2018 1.2 -4.3 -2.1 5.8 98.6
DateTime Avg Temp (°C) Rain (mm) RH (%)
Sun, Feb 18, 2018 03:00 -2.7 0.0 100.0
Sun, Feb 18, 2018 02:00 -2.9 0.0 100.0
Sun, Feb 18, 2018 01:00 -2.9 0.0 100.0
Sun, Feb 18, 2018 00:00 -2.6 0.0 100.0
Sat, Feb 17, 2018 23:00 -2.3 0.0 98.8
Sat, Feb 17, 2018 22:00 -2.4 0.0 82.8
Sat, Feb 17, 2018 21:00 -2.8 0.0 77.8
Sat, Feb 17, 2018 20:00 -2.7 0.0 74.0
Sat, Feb 17, 2018 19:00 -2.6 0.0 69.0
Sat, Feb 17, 2018 18:00 -2.5 0.0 67.3
Sat, Feb 17, 2018 17:00 -2.2 0.0 62.0
Sat, Feb 17, 2018 16:00 -2.1 0.0 59.8
Sat, Feb 17, 2018 15:00 -2.0 0.0 60.0
Sat, Feb 17, 2018 14:00 -1.8 0.0 61.3
Sat, Feb 17, 2018 13:00 -2.1 0.0 63.0
Sat, Feb 17, 2018 12:00 -2.2 0.0 64.0
Sat, Feb 17, 2018 11:00 -2.7 0.0 67.5
Sat, Feb 17, 2018 10:00 -3.6 0.0 70.0
Sat, Feb 17, 2018 09:00 -4.8 0.0 80.0
Sat, Feb 17, 2018 08:00 -7.1 0.0 95.8
Sat, Feb 17, 2018 07:00 -8.0 0.0 100.0
Sat, Feb 17, 2018 06:00 -8.3 0.0 100.0
Sat, Feb 17, 2018 05:00 -8.2 0.0 100.0
Sat, Feb 17, 2018 04:00 -8.3 0.0 100.0
Sat, Feb 17, 2018 03:00 -8.2 0.0 95.0
Sat, Feb 17, 2018 02:00 -7.7 0.0 86.8
Sat, Feb 17, 2018 01:00 -7.2 0.0 81.8
Sat, Feb 17, 2018 00:00 -6.9 0.0 81.3
Fri, Feb 16, 2018 23:00 -6.5 0.0 77.8
Fri, Feb 16, 2018 22:00 -6.3 0.0 74.5
Fri, Feb 16, 2018 21:00 -5.6 0.0 69.5
Fri, Feb 16, 2018 20:00 -5.0 0.0 68.3
Fri, Feb 16, 2018 19:00 -4.3 0.0 63.5
Fri, Feb 16, 2018 18:00 -3.4 0.0 63.5
Fri, Feb 16, 2018 17:00 -2.0 0.0 62.8
Fri, Feb 16, 2018 16:00 -0.6 0.0 62.0
Fri, Feb 16, 2018 15:00 0.4 0.0 58.0
Fri, Feb 16, 2018 14:00 0.6 0.0 59.0
Fri, Feb 16, 2018 13:00 1.1 0.0 69.3
Fri, Feb 16, 2018 12:00 0.9 0.0 86.8
Fri, Feb 16, 2018 11:00 0.6 0.0 100.0
Fri, Feb 16, 2018 10:00 0.6 0.0 100.0
Fri, Feb 16, 2018 09:00 0.2 0.0 100.0
Fri, Feb 16, 2018 08:00 0.4 0.0 100.0
Fri, Feb 16, 2018 07:00 1.1 0.0 100.0
Fri, Feb 16, 2018 06:00 1.3 0.0 100.0
Fri, Feb 16, 2018 05:00 1.4 0.0 100.0
Fri, Feb 16, 2018 04:00 2.0 0.0 100.0


asterix Register now to access more data! asterix